Tracking 30986 objects as of 9-Jul-2025
HD Live streaming from Space Station
objects crossing your sky now

CZ-6A DEB

Track CZ-6A DEB now!
10-day predictions


NORAD ID: 54518
Int'l Code: 2022-151JW
Perigee: 710.0 km
Apogee: 893.8 km
Inclination: 98.8 °
Period: 100.8 minutes
Semi major axis: 7172 km
RCS: Unknown
Launch date: November 11, 2022
Source: People's Republic of China (PRC)
Launch site: Taiyaun Space Center, China (TSC)

Note: This is SATELLITE DEBRIS
Your satellite tracking list
Your tracking list is empty




NASA's NSSDC Master Catalog

Two Line Element Set (TLE):
1 54518U 22151JW  25190.08602341  .00001339  00000-0  50028-3 0  9999
2 54518  98.8077 221.5458 0128085  38.1645 322.8521 14.29088360138064
Source of the keplerian elements: AFSPC